Location: Cérisay
(48.0930°N, 1.4398°W)
Time: 12:40:14
(UTC+00:00)

Daily predictions for brighter satellites

Satellite Brightness Start Highest point End
(mag) Time Altitude Azimuth Time Altitude Azimuth Time Altitude Azimuth
BREEZE-M DEB (TANK) 3.5 18:40:50 10° WSW 18:43:54 71° SSE 18:53:13 10° ENE
USA 308 2.6 18:40:20 10° WNW 18:44:07 73° NNE 18:47:52 10° ESE
SKYMED 2 4.3 18:40:09 10° N 18:44:27 61° WNW 18:48:43 10° SSW
Cosmos 1605 Rocket 4.2 18:40:10 10° N 18:46:38 90° S 18:53:00 10° S
Tiangong 0.6 18:46:01 10° SW 18:47:17 12° SSW 18:48:33 10° S
PAYLOAD B 4.3 18:42:00 10° SSE 18:47:32 88° ENE 18:53:09 10° NNW
Okean-O 4.1 18:45:15 10° ESE 18:48:21 19° ENE 18:51:29 10° NNE
Cosmos 1743 2.9 18:45:18 10° SSW 18:49:06 76° W 18:52:55 10° N
BREEZE M DEB (TANK) 2.3 18:46:49 10° WSW 18:50:18 53° SSE 18:52:29 10° E
Cosmos 1190 Rocket 4.2 18:46:54 10° NNW 18:52:00 53° ENE 18:57:06 10° SE
MOS 1-B 4.4 18:47:53 10° SSE 18:53:41 76° ENE 18:59:29 10° NNW
Cosmos 2100 Rocket 4.4 18:49:56 10° N 18:56:03 45° ENE 19:02:06 10° SE
EXPRESS MD2 2.1 18:54:41 10° WNW 18:57:00 65° SSW 18:59:08 10° ESE
Cosmos 1470 Rocket 3.8 18:54:09 10° SSE 18:58:26 47° E 19:02:45 10° NNE
Meteor 1-11 Rocket 3.9 18:53:48 10° S 18:59:45 90° E 19:05:38 10° NNE
USA 215 3.8 18:53:29 10° NE 18:59:54 59° NNW 19:06:17 10° W
Okean O Rocket 1.7 18:57:21 10° SSE 19:01:42 59° ENE 19:06:03 10° N
Cosmos 1954 Rocket 4.3 19:01:31 10° NNW 19:06:36 50° ENE 19:11:42 10° SE
Cosmos 1140 Rocket 4.1 19:04:51 10° NNW 19:09:58 61° WSW 19:15:05 10° S
IGS 5A 3.4 19:06:56 10° SSE 19:11:01 68° ENE 19:15:08 10° N
Landsat 7 4.2 19:06:55 10° SE 19:11:23 44° ENE 19:15:52 10° N
USA 229 DEB 4.1 19:07:25 10° SW 19:13:39 62° NW 19:20:30 10° NE
USA 229 4.1 19:07:30 10° SW 19:13:44 63° NW 19:20:37 10° NE
Exosat Rocket 4.0 19:09:34 10° S 19:14:24 45° ESE 19:20:18 10° NE
Cosmos 2333 4.3 19:10:46 10° NNW 19:16:37 89° ENE 19:22:24 10° SSE
ISS -3.8 19:13:54 10° WSW 19:17:15 83° SSE 19:20:08 13° ENE
YAOGAN 1 3.6 19:13:14 10° S 19:17:26 50° W 19:21:39 10° NNW
SL-8 R/B 3.8 19:12:47 10° W 19:17:34 71° SSW 19:21:31 15° ESE
Cosmos 2084 Rocket 3.3 19:14:07 10° NW 19:17:53 75° SW 19:21:45 10° SE
SL-27 R/B 3.1 19:15:09 10° SSE 19:18:01 28° ESE 19:20:53 10° NE
USA 306 3.2 19:15:09 10° WNW 19:18:50 53° SW 19:22:14 12° SE
Cosmos 2322 Rocket 3.6 19:15:21 10° NW 19:20:40 42° WSW 19:25:59 10° S
Cosmos 1727 Rocket 4.0 19:15:17 10° S 19:21:36 83° E 19:27:55 10° N
TIMED 4.5 19:17:20 10° SSW 19:21:42 88° ESE 19:26:05 10° NNE
Cosmos 2237 Rocket 3.5 19:18:01 10° N 19:22:33 24° NE 19:25:47 15° E
Cosmos 1842 3.5 19:19:36 10° NNW 19:23:26 68° W 19:27:12 10° S
CSL-04 Rocket 3.9 19:18:19 10° SE 19:23:43 55° ENE 19:29:08 10° N
Cosmos 1975 3.3 19:20:08 10° SSE 19:23:44 36° E 19:27:23 10° NNE
In-Cosmos 22 4.2 19:21:10 10° N 19:26:49 79° ENE 19:32:32 10° SSE
Cosmos 407 Rocket 4.4 19:22:01 10° NNW 19:27:11 53° WSW 19:32:21 10° S
Cosmos 1626 1.9 19:24:23 10° N 19:27:58 77° E 19:31:31 10° SSE
KORONAS-FOTON 3.7 19:24:11 10° N 19:27:59 67° E 19:31:46 10° SSE
Cosmos 1818 3.6 19:22:36 10° NW 19:28:03 66° NE 19:32:27 16° SE
SJ-6B 2.7 19:25:17 10° SSE 19:29:14 76° ENE 19:33:07 10° N
USA 186 1.6 19:26:23 10° SSE 19:29:26 63° ENE 19:32:31 10° N
Cosmos 2322 3.7 19:28:34 10° NNW 19:34:16 72° ENE 19:39:23 13° SE
CZ-4B R/B 4.0 19:28:56 10° S 19:34:30 56° W 19:40:04 10° NNW
Cosmos 1371 Rocket 3.9 19:31:14 10° SSW 19:36:31 77° ESE 19:41:46 10° NNE
CZ-4C R/B 4.3 19:34:30 10° NW 19:39:25 23° NNE 19:45:08 10° ENE
Cosmos 2333 Rocket 2.8 19:34:06 10° NW 19:39:47 60° WSW 19:45:25 10° S
GEOS 3 Rocket 4.4 19:38:01 10° NE 19:43:16 54° NW 19:48:31 10° WSW
Cosmos 1805 4.0 19:43:25 28° ESE 19:43:55 29° E 19:47:15 10° NNE
CZ-4 R/B 2.7 19:40:49 10° SSW 19:44:24 39° W 19:48:04 10° NNW
Cosmos 2056 Rocket 3.4 19:40:10 10° SSW 19:45:18 85° ESE 19:50:27 10° NNE
Cosmos 1707 3.1 19:41:51 10° NNW 19:45:38 64° W 19:49:22 10° S
SL-14 R/B 4.0 19:42:59 10° N 19:46:29 32° ENE 19:47:11 30° E
NOSS 3-2 (A) 4.1 19:39:44 10° NW 19:47:03 70° NE 19:53:11 21° SE
Meteor 2-9 Rocket 4.5 19:43:50 10° SSW 19:49:21 70° WNW 19:54:46 10° N
Cosmos 1933 Rocket 3.5 19:45:37 10° S 19:49:57 90° NW 19:54:18 10° N
Cosmos 2219 Rocket 2.4 19:44:36 10° NNW 19:50:18 72° WSW 19:55:56 10° SSE
USA 307 3.6 19:47:01 10° WNW 19:50:37 40° SW 19:52:43 21° SSE
USA 305 3.5 19:47:02 10° WNW 19:50:38 42° SW 19:52:42 22° SSE
COSMOS 2428 2.7 19:45:22 10° NNW 19:51:07 74° ENE 19:55:09 20° SE
BREEZE-M DEB (TANK) 3.2 19:44:03 10° W 19:51:18 72° N 19:52:45 31° ENE
SPOT 1/Viking Rocket 3.6 19:50:10 19° SE 19:53:48 58° ENE 19:58:55 10° N
Cosmos 1459 Rocket 4.0 19:49:01 10° NNW 19:55:05 79° W 20:01:07 10° S
NOSS 3-2 (C) 4.3 19:48:16 10° NW 19:55:18 52° NE 20:00:12 25° ESE
Timation 1 Rocket 4.2 19:50:26 10° SSW 19:56:24 75° ESE 20:02:25 10° NNE
Resurs 01 Rocket 1.8 19:54:50 29° SE 19:56:47 50° ENE 20:01:04 10° N
CSL-04 Debris 4.3 19:52:11 10° S 19:57:35 76° WSW 20:03:03 10° NNW
Geosat 3.9 19:54:18 20° SSE 19:57:48 85° ENE 20:02:52 10° NNW
Cosmos 1725 Rocket 3.9 19:51:43 10° N 19:57:54 72° E 20:03:52 11° SSE
Okean 1-7 3.7 19:54:13 10° NNW 19:58:31 56° W 20:02:46 10° S
Cosmos 1869 Rocket 3.5 19:54:49 10° S 19:59:03 59° E 20:03:19 10° NNE
Cosmos 1624 Rocket 4.2 19:53:55 10° SSW 19:59:13 76° WNW 20:04:35 10° NNE
Cosmos 1850 Rocket 4.3 19:56:07 10° NNW 20:01:20 51° ENE 20:03:29 32° ESE
Okean 2 3.4 19:57:41 10° N 20:01:42 56° ENE 20:02:56 39° SE
Cosmos 2297 Rocket 3.9 20:08:56 16° ENE 20:08:56 16° ENE 20:10:16 10° NE
CENTAUR R/B 3.2 19:58:27 10° NW 20:06:38 87° NE 20:12:45 24° SE
Cosmos 1420 Rocket 4.3 20:02:53 10° SSW 20:08:06 68° WNW 20:13:19 10° NNE
H-2A R/B 3.7 20:08:14 27° ENE 20:08:14 27° ENE 20:11:50 10° N
Cosmos 1802 Rocket 4.1 20:02:16 10° NNW 20:08:30 79° W 20:14:48 10° S
USA 238 DEB 4.3 20:01:32 10° NW 20:08:31 50° NE 20:12:16 29° E
USA 238 4.3 20:01:38 10° NW 20:08:37 50° NE 20:12:21 29° E
Cosmos 1674 3.9 20:06:36 10° NNW 20:10:07 40° W 20:13:36 10° SSW
IRS-1C Rocket 4.0 20:08:48 19° SSE 20:12:37 88° ENE 20:17:56 10° NNW
Iridium 4 Rocket 2.9 20:10:44 10° N 20:15:00 84° W 20:17:31 23° S
Cosmos 1900 4.2 20:10:50 10° SSW 20:15:47 77° ESE 20:20:43 10° NE
Cosmos 2098 Rocket 3.7 20:13:09 10° S 20:18:10 83° W 20:24:26 10° N
BREEZE-M DEB (TANK) 3.5 20:11:49 10° WNW 20:19:55 68° N 20:21:44 36° ENE
USA 308 4.4 20:18:55 10° W 20:21:57 23° SW 20:22:59 21° SSW
Cosmos 1452 Rocket 3.5 20:17:59 10° S 20:23:09 59° ESE 20:28:21 10° NNE
Okean-O 3.2 20:21:14 18° S 20:24:25 56° W 20:28:48 10° NNW
IRS-P2 Rocket 4.5 20:23:47 34° SSE 20:26:06 85° ENE 20:31:22 10° NNW
SL-16 R/B 3.4 20:25:04 10° N 20:29:48 26° NE 20:30:33 25° ENE
Cosmos 2016 Rocket 4.3 20:23:50 10° NNW 20:29:53 65° W 20:35:55 10° S
Cosmos 2123 Rocket 4.2 20:24:57 10° SSW 20:31:13 72° W 20:37:33 10° N
Landsat 5 3.3 20:28:46 10° NNE 20:32:36 79° WNW 20:33:43 45° SSW
Cosmos 1733 3.8 20:32:30 18° SSW 20:35:06 55° WNW 20:38:50 10° N
Cosmos 2221 Rocket 4.2 20:33:12 10° N 20:36:40 42° NE 20:36:40 42° NE
Cosmos 1741 Rocket 3.9 20:32:57 10° NNW 20:38:13 88° WSW 20:39:26 54° SSE
Okean O Rocket 4.4 20:35:34 10° SW 20:38:24 17° W 20:41:14 10° NW
Cosmos 1726 2.7 20:42:27 51° NW 20:42:27 51° NW 20:45:27 10° N
USA 215 4.2 20:37:36 17° ENE 20:42:17 41° N 20:48:19 10° WNW
Cosmos 1733 Rocket 4.2 20:46:06 32° NNE 20:46:06 32° NNE 20:48:32 10° NNE
Cosmos 1447 Rocket 4.4 20:43:25 41° SSE 20:45:38 70° E 20:51:48 10° NNE
Cosmos 192 4.5 20:43:03 10° SSW 20:48:00 73° WNW 20:52:59 10° NNE
CARTOSAT-1 3.6 20:49:36 77° W 20:49:36 77° W 20:53:54 10° NNW
Meteor 2-13 Rocket 4.3 20:52:12 55° SSE 20:53:30 72° E 20:59:40 10° NNE
ISS -1.9 20:50:59 10° W 20:53:05 31° NW 20:53:05 31° NW
Cosmos 1378 Rocket 4.4 20:50:43 10° N 20:53:47 42° NNE 20:53:47 42° NNE
Terra 3.0 20:56:53 31° NNE 20:56:53 31° NNE 20:59:53 10° N
SPOT 5 3.4 20:57:31 46° NNE 20:57:31 46° NNE 21:01:08 10° N
Cosmos 968 Rocket 3.6 20:52:26 10° NNW 20:57:12 60° NE 20:57:12 60° NE
NOSS 0 Rocket 4.3 20:51:42 10° NW 20:57:47 59° WSW 20:59:44 41° S
ADEOS Rocket 3.4 20:58:19 48° ENE 20:58:40 48° ENE 21:05:11 10° N
Ariane Rocket 2.9 21:02:48 82° NNE 21:02:48 82° NNE 21:07:43 10° NNW
SPOT 3 Rocket 3.7 21:05:38 63° NNE 21:05:38 63° NNE 21:10:17 10° N
ERS-1 Rocket 3.5 21:06:30 47° NNE 21:06:30 47° NNE 21:10:24 10° N
Cosmos 2237 Rocket 2.1 21:01:34 10° NNW 21:07:13 76° WSW 21:07:37 72° SSW
Spot 2 Rocket 4.0 21:14:44 52° NNE 21:14:44 52° NNE 21:18:45 10° N
Meteor 1-24 Rocket 4.1 21:09:47 10° N 21:14:52 56° NE 21:14:52 56° NE
ATLAS CENTAUR R/B 4.1 21:00:43 10° SW 21:16:36 88° NW 21:22:22 20° NE
Cosmos 1513 Rocket 4.3 21:11:02 10° N 21:16:57 77° ENE 21:16:57 77° ENE
FALCON 9 R/B 4.1 21:11:25 10° WSW 21:25:20 33° SSW 21:25:41 33° SSW
Cosmos 1980 4.2 21:22:17 10° NW 21:27:46 51° WSW 21:27:56 50° WSW
CZ-4C R/B 3.4 21:23:04 10° NW 21:29:37 46° NE 21:30:34 44° ENE
Meteor 2-5 Rocket 4.0 21:24:53 10° N 21:29:52 67° N 21:29:52 67° N
Resurs 01 Rocket 3.9 21:32:22 18° WSW 21:33:32 19° W 21:36:45 10° NW
Cosmos 2034 Rocket 4.4 21:27:48 10° N 21:32:45 52° NNE 21:32:45 52° NNE
SJ 16-02 3.6 21:31:28 10° N 21:32:57 19° N 21:32:57 19° N
H-2A R/B 4.4 21:44:35 30° WNW 21:44:35 30° WNW 21:47:23 10° NNW
ATLAS 3B R/B 4.4 21:39:06 10° NW 21:45:18 27° NNE 21:48:14 22° NE
NOSS 3-2 (C) 4.4 21:39:10 10° NW 21:46:31 55° WSW 21:47:40 51° SSW
Cosmos 2297 Rocket 3.0 21:50:34 47° NNW 21:50:34 47° NNW 21:54:57 10° NNE
USA 238 DEB 4.3 21:52:35 10° NW 21:59:41 54° WSW 21:59:43 54° WSW
USA 238 4.3 21:52:41 10° NW 21:59:48 54° WSW 21:59:49 54° WSW
Cosmos 2227 Rocket 3.9 22:08:01 24° NNE 22:08:01 24° NNE 22:10:15 10° NNE
SL-16 R/B 3.3 22:08:46 10° NNW 22:12:26 40° NW 22:12:26 40° NW
USA 215 3.9 22:24:56 50° N 22:24:56 50° N 22:30:53 10° NW
Terra 4.2 22:35:37 19° NW 22:35:37 19° NW 22:37:20 10° NW
ADEOS Rocket 4.4 22:45:14 33° WNW 22:45:14 33° WNW 22:50:29 10° NNW
CZ-4C R/B 3.9 23:11:25 10° NW 23:15:44 40° WNW 23:15:44 40° WNW
ATLAS CENTAUR R/B 4.3 23:22:12 10° W 23:32:04 42° NNW 23:32:04 42° NNW
ATLAS 3B R/B 3.8 23:30:09 10° NW 23:35:28 45° N 23:35:28 45° N
